Year,Month,Day,Hour,Minute,Value (Times are PST for temperature in C)
2007,05,25,00,00,12.90
2007,05,25,00,01,12.90
2007,05,25,00,02,12.80
2007,05,25,00,03,12.80
2007,05,25,00,04,12.80
2007,05,25,00,05,12.70
2007,05,25,00,06,12.70
2007,05,25,00,07,12.70
2007,05,25,00,08,12.60
2007,05,25,00,09,12.60
2007,05,25,00,10,12.60
2007,05,25,00,11,12.60
2007,05,25,00,12,12.60
2007,05,25,00,13,12.60
2007,05,25,00,14,12.70
2007,05,25,00,15,12.80
2007,05,25,00,16,12.80
2007,05,25,00,17,12.80
2007,05,25,00,18,13.00
2007,05,25,00,19,13.00
2007,05,25,00,20,13.10
2007,05,25,00,21,13.20
2007,05,25,00,22,13.20
2007,05,25,00,23,13.20
2007,05,25,00,24,13.30
2007,05,25,00,25,13.30
2007,05,25,00,26,13.30
2007,05,25,00,27,13.20
2007,05,25,00,28,13.20
2007,05,25,00,29,13.20
2007,05,25,00,30,13.10
2007,05,25,00,31,13.10
2007,05,25,00,32,13.00
2007,05,25,00,33,13.00
2007,05,25,00,34,12.90
2007,05,25,00,35,12.80
2007,05,25,00,36,12.80
2007,05,25,00,37,12.70
2007,05,25,00,38,12.60
2007,05,25,00,39,12.60
2007,05,25,00,40,12.50
2007,05,25,00,41,12.40
2007,05,25,00,42,12.30
2007,05,25,00,43,12.30
2007,05,25,00,44,12.30
2007,05,25,00,45,12.20
2007,05,25,00,46,12.10
2007,05,25,00,47,12.10
2007,05,25,00,48,12.00
2007,05,25,00,49,12.00
2007,05,25,00,50,12.00
2007,05,25,00,51,11.90
2007,05,25,00,52,11.90
2007,05,25,00,53,11.80
2007,05,25,00,54,11.80
2007,05,25,00,55,11.80
2007,05,25,00,56,11.70
2007,05,25,00,57,11.70
2007,05,25,00,58,11.60
2007,05,25,00,59,11.60
2007,05,25,01,00,11.60
2007,05,25,01,01,11.50
2007,05,25,01,02,11.40
2007,05,25,01,03,11.40
2007,05,25,01,04,11.40
2007,05,25,01,05,11.40
2007,05,25,01,06,11.40
2007,05,25,01,07,11.40
2007,05,25,01,08,11.40
2007,05,25,01,09,11.40
2007,05,25,01,10,11.40
2007,05,25,01,11,11.40
2007,05,25,01,12,11.40
2007,05,25,01,13,11.40
2007,05,25,01,14,11.40
2007,05,25,01,15,11.40
2007,05,25,01,16,11.40
2007,05,25,01,17,11.40
2007,05,25,01,18,11.30
2007,05,25,01,19,11.30
2007,05,25,01,20,11.30
2007,05,25,01,21,11.30
2007,05,25,01,22,11.30
2007,05,25,01,23,11.20
2007,05,25,01,24,11.20
2007,05,25,01,25,11.20
2007,05,25,01,26,11.20
2007,05,25,01,27,11.10
2007,05,25,01,28,11.10
2007,05,25,01,29,11.10
2007,05,25,01,30,11.10
2007,05,25,01,31,11.10
2007,05,25,01,32,11.10
2007,05,25,01,33,11.10
2007,05,25,01,34,11.10
2007,05,25,01,35,11.00
2007,05,25,01,36,10.90
2007,05,25,01,37,10.90
2007,05,25,01,38,10.90
2007,05,25,01,39,10.90
2007,05,25,01,40,10.90
2007,05,25,01,41,10.90
2007,05,25,01,42,10.90
2007,05,25,01,43,10.90
2007,05,25,01,44,10.90
2007,05,25,01,45,10.90
2007,05,25,01,46,10.90
2007,05,25,01,47,10.90
2007,05,25,01,48,10.80
2007,05,25,01,49,10.80
2007,05,25,01,50,10.80
2007,05,25,01,51,10.80
2007,05,25,01,52,10.80
2007,05,25,01,53,10.80
2007,05,25,01,54,10.80
2007,05,25,01,55,10.70
2007,05,25,01,56,10.70
2007,05,25,01,57,10.70
2007,05,25,01,58,10.70
2007,05,25,01,59,10.70
2007,05,25,02,00,10.60
2007,05,25,02,01,10.60
2007,05,25,02,02,10.60
2007,05,25,02,03,10.60
2007,05,25,02,04,10.60
2007,05,25,02,05,10.60
2007,05,25,02,06,10.60
2007,05,25,02,07,10.60
2007,05,25,02,08,10.60
2007,05,25,02,09,10.60
2007,05,25,02,10,10.60
2007,05,25,02,11,10.50
2007,05,25,02,12,10.40
2007,05,25,02,13,10.40
2007,05,25,02,14,10.40
2007,05,25,02,15,10.40
2007,05,25,02,16,10.40
2007,05,25,02,17,10.40
2007,05,25,02,18,10.40
2007,05,25,02,19,10.40
2007,05,25,02,20,10.30
2007,05,25,02,21,10.30
2007,05,25,02,22,10.30
2007,05,25,02,23,10.30
2007,05,25,02,24,10.30
2007,05,25,02,25,10.30
2007,05,25,02,26,10.30
2007,05,25,02,27,10.30
2007,05,25,02,28,10.30
2007,05,25,02,29,10.20
2007,05,25,02,30,10.30
2007,05,25,02,31,10.30
2007,05,25,02,32,10.30
2007,05,25,02,33,10.30
2007,05,25,02,34,10.20
2007,05,25,02,35,10.20
2007,05,25,02,36,10.20
2007,05,25,02,37,10.20
2007,05,25,02,38,10.20
2007,05,25,02,39,10.20
2007,05,25,02,40,10.20
2007,05,25,02,41,10.20
2007,05,25,02,42,10.20
2007,05,25,02,43,10.20
2007,05,25,02,44,10.20
2007,05,25,02,45,10.20
2007,05,25,02,46,10.20
2007,05,25,02,47,10.20
2007,05,25,02,48,10.20
2007,05,25,02,49,10.20
2007,05,25,02,50,10.20
2007,05,25,02,51,10.10
2007,05,25,02,52,10.10
2007,05,25,02,53,10.10
2007,05,25,02,54,10.10
2007,05,25,02,55,10.10
2007,05,25,02,56,10.10
2007,05,25,02,57,10.10
2007,05,25,02,58,10.10
2007,05,25,02,59,10.10
2007,05,25,03,00,10.10
2007,05,25,03,01,10.10
2007,05,25,03,02,10.10
2007,05,25,03,03,10.10
2007,05,25,03,04,10.10
2007,05,25,03,05,10.10
2007,05,25,03,06,10.00
2007,05,25,03,07,10.00
2007,05,25,03,08,10.00
2007,05,25,03,09,10.00
2007,05,25,03,10,10.00
2007,05,25,03,11,10.00
2007,05,25,03,12,10.10
2007,05,25,03,13,10.00
2007,05,25,03,14,9.90
2007,05,25,03,15,9.90
2007,05,25,03,16,9.90
2007,05,25,03,17,9.90
2007,05,25,03,18,9.90
2007,05,25,03,19,9.90
2007,05,25,03,20,9.90
2007,05,25,03,21,9.90
2007,05,25,03,22,9.90
2007,05,25,03,23,9.90
2007,05,25,03,24,9.90
2007,05,25,03,25,9.90
2007,05,25,03,26,9.90
2007,05,25,03,27,9.90
2007,05,25,03,28,9.90
2007,05,25,03,29,9.90
2007,05,25,03,30,9.90
2007,05,25,03,31,9.90
2007,05,25,03,32,9.90
2007,05,25,03,33,9.90
2007,05,25,03,34,9.90
2007,05,25,03,35,9.90
2007,05,25,03,36,9.90
2007,05,25,03,37,9.90
2007,05,25,03,38,9.90
2007,05,25,03,39,9.90
2007,05,25,03,40,9.90
2007,05,25,03,41,9.90
2007,05,25,03,42,9.80
2007,05,25,03,43,9.80
2007,05,25,03,44,9.80
2007,05,25,03,45,9.80
2007,05,25,03,46,9.80
2007,05,25,03,47,9.80
2007,05,25,03,48,9.80
2007,05,25,03,49,9.80
2007,05,25,03,50,9.70
2007,05,25,03,51,9.70
2007,05,25,03,52,9.70
2007,05,25,03,53,9.70
2007,05,25,03,54,9.70
2007,05,25,03,55,9.70
2007,05,25,03,56,9.70
2007,05,25,03,57,9.70
2007,05,25,03,58,9.70
2007,05,25,03,59,9.70
2007,05,25,04,00,9.70
2007,05,25,04,01,9.70
2007,05,25,04,02,9.70
2007,05,25,04,03,9.70
2007,05,25,04,04,9.70
2007,05,25,04,05,9.70
2007,05,25,04,06,9.70
2007,05,25,04,07,9.70
2007,05,25,04,08,9.70
2007,05,25,04,09,9.70
2007,05,25,04,10,9.70
2007,05,25,04,11,9.70
2007,05,25,04,12,9.70
2007,05,25,04,13,9.70
2007,05,25,04,14,9.60
2007,05,25,04,15,9.60
2007,05,25,04,16,9.60
2007,05,25,04,17,9.60
2007,05,25,04,18,9.60
2007,05,25,04,19,9.60
2007,05,25,04,20,9.50
2007,05,25,04,21,9.50
2007,05,25,04,22,9.50
2007,05,25,04,23,9.50
2007,05,25,04,24,9.40
2007,05,25,04,25,9.40
2007,05,25,04,26,9.40
2007,05,25,04,27,9.40
2007,05,25,04,28,9.40
2007,05,25,04,29,9.30
2007,05,25,04,30,9.30
2007,05,25,04,31,9.30
2007,05,25,04,32,9.20
2007,05,25,04,33,9.20
2007,05,25,04,34,9.20
2007,05,25,04,35,9.20
2007,05,25,04,36,9.20
2007,05,25,04,37,9.20
2007,05,25,04,38,9.20
2007,05,25,04,39,9.20
2007,05,25,04,40,9.10
2007,05,25,04,41,9.10
2007,05,25,04,42,9.10
2007,05,25,04,43,9.10
2007,05,25,04,44,9.10
2007,05,25,04,45,9.00
2007,05,25,04,46,9.00
2007,05,25,04,47,9.00
2007,05,25,04,48,9.00
2007,05,25,04,49,9.00
2007,05,25,04,50,9.00
2007,05,25,04,51,8.90
2007,05,25,04,52,8.90
2007,05,25,04,53,8.90
2007,05,25,04,54,8.90
2007,05,25,04,55,8.90
2007,05,25,04,56,8.90
2007,05,25,04,57,8.90
2007,05,25,04,58,8.90
2007,05,25,04,59,8.80
2007,05,25,05,00,8.80
2007,05,25,05,01,8.80
2007,05,25,05,02,8.80
2007,05,25,05,03,8.80
2007,05,25,05,04,8.80
2007,05,25,05,05,8.80
2007,05,25,05,06,8.80
2007,05,25,05,07,8.80
2007,05,25,05,08,8.70
2007,05,25,05,09,8.70
2007,05,25,05,10,8.70
2007,05,25,05,11,8.70
2007,05,25,05,12,8.70
2007,05,25,05,13,8.70
2007,05,25,05,14,8.70
2007,05,25,05,15,8.70
2007,05,25,05,16,8.70
2007,05,25,05,17,8.70
2007,05,25,05,18,8.70
2007,05,25,05,19,8.70
2007,05,25,05,20,8.70
2007,05,25,05,21,8.70
2007,05,25,05,22,8.70
2007,05,25,05,23,8.70
2007,05,25,05,24,8.70
2007,05,25,05,25,8.60
2007,05,25,05,26,8.70
2007,05,25,05,27,8.60
2007,05,25,05,28,8.60
2007,05,25,05,29,8.60
2007,05,25,05,30,8.60
2007,05,25,05,31,8.60
2007,05,25,05,32,8.60
2007,05,25,05,33,8.60
2007,05,25,05,34,8.60
2007,05,25,05,35,8.60
2007,05,25,05,36,8.60
2007,05,25,05,37,8.60
2007,05,25,05,38,8.60
2007,05,25,05,39,8.50
2007,05,25,05,40,8.50
2007,05,25,05,41,8.50
2007,05,25,05,42,8.50
2007,05,25,05,43,8.50
2007,05,25,05,44,8.50
2007,05,25,05,45,8.50
2007,05,25,05,46,8.50
2007,05,25,05,47,8.50
2007,05,25,05,48,8.50
2007,05,25,05,49,8.50
2007,05,25,05,50,8.40
2007,05,25,05,51,8.40
2007,05,25,05,52,8.40
2007,05,25,05,53,8.40
2007,05,25,05,54,8.40
2007,05,25,05,55,8.40
2007,05,25,05,56,8.40
2007,05,25,05,57,8.40
2007,05,25,05,58,8.40
2007,05,25,05,59,8.50
2007,05,25,06,00,8.50
2007,05,25,06,01,8.50
2007,05,25,06,02,8.50
2007,05,25,06,03,8.50
2007,05,25,06,04,8.50
2007,05,25,06,05,8.50
2007,05,25,06,06,8.50
2007,05,25,06,07,8.60
2007,05,25,06,08,8.60
2007,05,25,06,09,8.60
2007,05,25,06,10,8.60
2007,05,25,06,11,8.60
2007,05,25,06,12,8.60
2007,05,25,06,13,8.60
2007,05,25,06,14,8.60
2007,05,25,06,15,8.60
2007,05,25,06,16,8.60
2007,05,25,06,17,8.60
2007,05,25,06,18,8.70
2007,05,25,06,19,8.70
2007,05,25,06,20,8.70
2007,05,25,06,21,8.70
2007,05,25,06,22,8.70
2007,05,25,06,23,8.70
2007,05,25,06,24,8.70
2007,05,25,06,25,8.70
2007,05,25,06,26,8.70
2007,05,25,06,27,8.70
2007,05,25,06,28,8.70
2007,05,25,06,29,8.70
2007,05,25,06,30,8.80
2007,05,25,06,31,8.80
2007,05,25,06,32,8.90
2007,05,25,06,33,8.90
2007,05,25,06,34,8.90
2007,05,25,06,35,8.90
2007,05,25,06,36,9.00
2007,05,25,06,37,9.00
2007,05,25,06,38,9.00
2007,05,25,06,39,9.10
2007,05,25,06,40,9.10
2007,05,25,06,41,9.10
2007,05,25,06,42,9.20
2007,05,25,06,43,9.20
2007,05,25,06,44,9.20
2007,05,25,06,45,9.20
2007,05,25,06,46,9.30
2007,05,25,06,47,9.30
2007,05,25,06,48,9.40
2007,05,25,06,49,9.50
2007,05,25,06,50,9.60
2007,05,25,06,51,9.60
2007,05,25,06,52,9.70
2007,05,25,06,53,9.70
2007,05,25,06,54,9.80
2007,05,25,06,55,9.90
2007,05,25,06,56,10.00
2007,05,25,06,57,10.10
2007,05,25,06,58,10.20
2007,05,25,06,59,10.30
2007,05,25,07,00,10.40
2007,05,25,07,01,10.50
2007,05,25,07,02,10.60
2007,05,25,07,03,10.70
2007,05,25,07,04,10.70
2007,05,25,07,05,10.90
2007,05,25,07,06,10.90
2007,05,25,07,07,11.00
2007,05,25,07,08,11.10
2007,05,25,07,09,11.20
2007,05,25,07,10,11.30
2007,05,25,07,11,11.40
2007,05,25,07,12,11.50
2007,05,25,07,13,11.60
2007,05,25,07,14,11.70
2007,05,25,07,15,11.80
2007,05,25,07,16,11.80
2007,05,25,07,17,12.00
2007,05,25,07,18,12.00
2007,05,25,07,19,12.10
2007,05,25,07,20,12.20
2007,05,25,07,21,12.30
2007,05,25,07,22,12.40
2007,05,25,07,23,12.50
2007,05,25,07,24,12.50
2007,05,25,07,25,12.60
2007,05,25,07,26,12.70
2007,05,25,07,27,12.80
2007,05,25,07,28,12.80
2007,05,25,07,29,12.80
2007,05,25,07,30,12.80
2007,05,25,07,31,12.90
2007,05,25,07,32,12.90
2007,05,25,07,33,12.90
2007,05,25,07,34,12.90
2007,05,25,07,35,13.00
2007,05,25,07,36,13.00
2007,05,25,07,37,13.00
2007,05,25,07,38,13.10
2007,05,25,07,39,13.10
2007,05,25,07,40,13.20
2007,05,25,07,41,13.20
2007,05,25,07,42,13.30
2007,05,25,07,43,13.30
2007,05,25,07,44,13.30
2007,05,25,07,45,13.30
2007,05,25,07,46,13.40
2007,05,25,07,47,13.40
2007,05,25,07,48,13.50
2007,05,25,07,49,13.50
2007,05,25,07,50,13.50
2007,05,25,07,51,13.50
2007,05,25,07,52,13.60
2007,05,25,07,53,13.60
2007,05,25,07,54,13.60
2007,05,25,07,55,13.60
2007,05,25,07,56,13.50
2007,05,25,07,57,13.30
2007,05,25,07,58,13.30
2007,05,25,07,59,13.30
2007,05,25,08,00,13.30
2007,05,25,08,01,13.30
2007,05,25,08,02,13.30
2007,05,25,08,03,13.30
2007,05,25,08,04,13.40
2007,05,25,08,05,13.50
2007,05,25,08,06,13.50
2007,05,25,08,07,13.50
2007,05,25,08,08,13.50
2007,05,25,08,09,13.30
2007,05,25,08,10,13.30
2007,05,25,08,11,13.20
2007,05,25,08,12,13.20
2007,05,25,08,13,13.20
2007,05,25,08,14,13.20
2007,05,25,08,15,13.20
2007,05,25,08,16,13.30
2007,05,25,08,17,13.30
2007,05,25,08,18,13.30
2007,05,25,08,19,13.30
2007,05,25,08,20,13.40
2007,05,25,08,21,13.50
2007,05,25,08,22,13.50
2007,05,25,08,23,13.60
2007,05,25,08,24,13.70
2007,05,25,08,25,13.70
2007,05,25,08,26,13.80
2007,05,25,08,27,13.70
2007,05,25,08,28,13.60
2007,05,25,08,29,13.50
2007,05,25,08,30,13.50
2007,05,25,08,31,13.40
2007,05,25,08,32,13.40
2007,05,25,08,33,13.50
2007,05,25,08,34,13.50
2007,05,25,08,35,13.60
2007,05,25,08,36,13.60
2007,05,25,08,37,13.70
2007,05,25,08,38,13.80
2007,05,25,08,39,13.90
2007,05,25,08,40,14.00
2007,05,25,08,41,14.10
2007,05,25,08,42,14.20
2007,05,25,08,43,14.10
2007,05,25,08,44,14.10
2007,05,25,08,45,14.10
2007,05,25,08,46,14.10
2007,05,25,08,47,14.20
2007,05,25,08,48,14.30
2007,05,25,08,49,14.40
2007,05,25,08,50,14.50
2007,05,25,08,51,14.70
2007,05,25,08,52,14.80
2007,05,25,08,53,14.90
2007,05,25,08,54,15.00
2007,05,25,08,55,15.10
2007,05,25,08,56,15.20
2007,05,25,08,57,15.30
2007,05,25,08,58,15.40
2007,05,25,08,59,15.50
2007,05,25,09,00,15.50
2007,05,25,09,01,15.60
2007,05,25,09,02,15.60
2007,05,25,09,03,15.70
2007,05,25,09,04,15.70
2007,05,25,09,05,15.70
2007,05,25,09,06,15.70
2007,05,25,09,07,15.80
2007,05,25,09,08,15.70
2007,05,25,09,09,15.70
2007,05,25,09,10,15.80
2007,05,25,09,11,15.80
2007,05,25,09,12,15.80
2007,05,25,09,13,15.80
2007,05,25,09,14,15.80
2007,05,25,09,15,15.80
2007,05,25,09,16,15.80
2007,05,25,09,17,15.80
2007,05,25,09,18,15.80
2007,05,25,09,19,15.80
2007,05,25,09,20,15.80
2007,05,25,09,21,15.70
2007,05,25,09,22,15.60
2007,05,25,09,23,15.60
2007,05,25,09,24,15.60
2007,05,25,09,25,15.70
2007,05,25,09,26,15.70
2007,05,25,09,27,15.80
2007,05,25,09,28,15.90
2007,05,25,09,29,16.00
2007,05,25,09,30,16.10
2007,05,25,09,31,16.10
2007,05,25,09,32,16.10
2007,05,25,09,33,16.10
2007,05,25,09,34,16.10
2007,05,25,09,35,16.10
2007,05,25,09,36,16.10
2007,05,25,09,37,16.10
2007,05,25,09,38,16.10
2007,05,25,09,39,16.10
2007,05,25,09,40,16.20
2007,05,25,09,41,16.30
2007,05,25,09,42,16.30
2007,05,25,09,43,16.30
2007,05,25,09,44,16.30
2007,05,25,09,45,16.30
2007,05,25,09,46,16.40
2007,05,25,09,47,16.40
2007,05,25,09,48,16.40
2007,05,25,09,49,16.40
2007,05,25,09,50,16.50
2007,05,25,09,51,16.50
2007,05,25,09,52,16.60
2007,05,25,09,53,16.60
2007,05,25,09,54,16.40
2007,05,25,09,55,16.40
2007,05,25,09,56,16.40
2007,05,25,09,57,16.40
2007,05,25,09,58,16.20
2007,05,25,09,59,15.90
2007,05,25,10,00,15.70
2007,05,25,10,01,15.60
2007,05,25,10,02,15.60
2007,05,25,10,03,15.50
2007,05,25,10,04,15.40
2007,05,25,10,05,15.30
2007,05,25,10,06,15.20
2007,05,25,10,07,15.10
2007,05,25,10,08,15.00
2007,05,25,10,09,14.90
2007,05,25,10,10,14.90
2007,05,25,10,11,14.90
2007,05,25,10,12,14.90
2007,05,25,10,13,15.00
2007,05,25,10,14,15.00
2007,05,25,10,15,15.00
2007,05,25,10,16,15.00
2007,05,25,10,17,15.10
2007,05,25,10,18,15.20
2007,05,25,10,19,15.20
2007,05,25,10,20,15.30
2007,05,25,10,21,15.30
2007,05,25,10,22,15.30
2007,05,25,10,23,15.20
2007,05,25,10,24,15.20
2007,05,25,10,25,15.20
2007,05,25,10,26,15.30
2007,05,25,10,27,15.40
2007,05,25,10,28,15.50
2007,05,25,10,29,15.60
2007,05,25,10,30,15.70
2007,05,25,10,31,15.80
2007,05,25,10,32,15.80
2007,05,25,10,33,15.90
2007,05,25,10,34,15.90
2007,05,25,10,35,16.10
2007,05,25,10,36,16.20
2007,05,25,10,37,16.20
2007,05,25,10,38,16.30
2007,05,25,10,39,16.30
2007,05,25,10,40,16.40
2007,05,25,10,41,16.30
2007,05,25,10,42,16.30
2007,05,25,10,43,16.20
2007,05,25,10,44,16.20
2007,05,25,10,45,16.30
2007,05,25,10,46,16.30
2007,05,25,10,47,16.30
2007,05,25,10,48,16.40
2007,05,25,10,49,16.40
2007,05,25,10,50,16.50
2007,05,25,10,51,16.70
2007,05,25,10,52,16.70
2007,05,25,10,53,16.70
2007,05,25,10,54,16.70
2007,05,25,10,55,16.70
2007,05,25,10,56,16.70
2007,05,25,10,57,16.80
2007,05,25,10,58,16.80
2007,05,25,10,59,16.80
2007,05,25,11,00,16.80
2007,05,25,11,01,16.70
2007,05,25,11,02,16.70
2007,05,25,11,03,16.60
2007,05,25,11,04,16.50
2007,05,25,11,05,16.40
2007,05,25,11,06,16.30
2007,05,25,11,07,16.30
2007,05,25,11,08,16.30
2007,05,25,11,09,16.30
2007,05,25,11,10,16.30
2007,05,25,11,11,16.20
2007,05,25,11,12,16.30
2007,05,25,11,13,16.30
2007,05,25,11,14,16.50
2007,05,25,11,15,16.60
2007,05,25,11,16,16.70
2007,05,25,11,17,16.90
2007,05,25,11,18,17.10
2007,05,25,11,19,17.30
2007,05,25,11,20,17.50
2007,05,25,11,21,17.60
2007,05,25,11,22,17.70
2007,05,25,11,23,17.80
2007,05,25,11,24,17.70
2007,05,25,11,25,17.70
2007,05,25,11,26,17.70
2007,05,25,11,27,17.80
2007,05,25,11,28,17.90
2007,05,25,11,29,17.90
2007,05,25,11,30,17.90
2007,05,25,11,31,17.90
2007,05,25,11,32,17.80
2007,05,25,11,33,17.70
2007,05,25,11,34,17.60
2007,05,25,11,35,17.60
2007,05,25,11,36,17.50
2007,05,25,11,37,17.50
2007,05,25,11,38,17.50
2007,05,25,11,39,17.50
2007,05,25,11,40,17.50
2007,05,25,11,41,17.30
2007,05,25,11,42,17.30
2007,05,25,11,43,17.30
2007,05,25,11,44,17.30
2007,05,25,11,45,17.30
2007,05,25,11,46,17.20
2007,05,25,11,47,17.20
2007,05,25,11,48,17.20
2007,05,25,11,49,17.20
2007,05,25,11,50,17.20
2007,05,25,11,51,17.20
2007,05,25,11,52,17.20
2007,05,25,11,53,17.30
2007,05,25,11,54,17.60
2007,05,25,11,55,17.60
2007,05,25,11,56,17.50
2007,05,25,11,57,17.50
2007,05,25,11,58,17.60
2007,05,25,11,59,17.50
2007,05,25,12,00,17.30
2007,05,25,12,01,17.30
2007,05,25,12,02,17.30
2007,05,25,12,03,17.30
2007,05,25,12,04,17.30
2007,05,25,12,05,17.30
2007,05,25,12,06,17.30
2007,05,25,12,07,17.30
2007,05,25,12,08,17.30
2007,05,25,12,09,17.40
2007,05,25,12,10,17.50
2007,05,25,12,11,17.60
2007,05,25,12,12,17.70
2007,05,25,12,13,17.90
2007,05,25,12,14,18.00
2007,05,25,12,15,18.10
2007,05,25,12,16,18.20
2007,05,25,12,17,18.20
2007,05,25,12,18,18.20
2007,05,25,12,19,18.20
2007,05,25,12,20,18.20
2007,05,25,12,21,18.30
2007,05,25,12,22,18.40
2007,05,25,12,23,18.50
2007,05,25,12,24,18.50
2007,05,25,12,25,18.60
2007,05,25,12,26,18.60
2007,05,25,12,27,18.60
2007,05,25,12,28,18.50
2007,05,25,12,29,18.40
2007,05,25,12,30,18.40
2007,05,25,12,31,18.30
2007,05,25,12,32,18.20
2007,05,25,12,33,18.00
2007,05,25,12,34,17.90
2007,05,25,12,35,17.90
2007,05,25,12,36,17.90
2007,05,25,12,37,17.80
2007,05,25,12,38,17.70
2007,05,25,12,39,17.60
2007,05,25,12,40,17.50
2007,05,25,12,41,17.60
2007,05,25,12,42,17.60
2007,05,25,12,43,17.70
2007,05,25,12,44,17.80
2007,05,25,12,45,17.80
2007,05,25,12,46,17.90
2007,05,25,12,47,17.80
2007,05,25,12,48,17.70
2007,05,25,12,49,17.60
2007,05,25,12,50,17.50
2007,05,25,12,51,17.60
2007,05,25,12,52,17.60
2007,05,25,12,53,17.60
2007,05,25,12,54,17.70
2007,05,25,12,55,17.80
2007,05,25,12,56,17.80
2007,05,25,12,57,17.90
2007,05,25,12,58,18.00
2007,05,25,12,59,18.20
2007,05,25,13,00,18.20
2007,05,25,13,01,18.20
2007,05,25,13,02,18.20
2007,05,25,13,03,18.20
2007,05,25,13,04,18.20
2007,05,25,13,05,18.20
2007,05,25,13,06,18.30
2007,05,25,13,07,18.60
2007,05,25,13,08,18.70
2007,05,25,13,09,18.80
2007,05,25,13,10,18.90
2007,05,25,13,11,18.90
2007,05,25,13,12,19.00
2007,05,25,13,13,19.10
2007,05,25,13,14,19.10
2007,05,25,13,15,19.00
2007,05,25,13,16,18.90
2007,05,25,13,17,19.00
2007,05,25,13,18,19.10
2007,05,25,13,19,19.10
2007,05,25,13,20,19.10
2007,05,25,13,21,19.10
2007,05,25,13,22,19.00
2007,05,25,13,23,18.90
2007,05,25,13,24,18.80
2007,05,25,13,25,18.70
2007,05,25,13,26,18.80
2007,05,25,13,27,18.90
2007,05,25,13,28,19.10
2007,05,25,13,29,19.30
2007,05,25,13,30,19.50
2007,05,25,13,31,19.70
2007,05,25,13,32,19.70
2007,05,25,13,33,19.90
2007,05,25,13,34,19.90
2007,05,25,13,35,19.90
2007,05,25,13,36,19.90
2007,05,25,13,37,20.00
2007,05,25,13,38,20.10
2007,05,25,13,39,20.20
2007,05,25,13,40,20.20
2007,05,25,13,41,20.10
2007,05,25,13,42,19.90
2007,05,25,13,43,19.90
2007,05,25,13,44,19.90
2007,05,25,13,45,19.90
2007,05,25,13,46,19.80
2007,05,25,13,47,19.70
2007,05,25,13,48,19.70
2007,05,25,13,49,19.70
2007,05,25,13,50,19.80
2007,05,25,13,51,19.90
2007,05,25,13,52,20.00
2007,05,25,13,53,20.10
2007,05,25,13,54,20.20
2007,05,25,13,55,20.20
2007,05,25,13,56,20.20
2007,05,25,13,57,20.20
2007,05,25,13,58,20.20
2007,05,25,13,59,20.20
2007,05,25,14,00,20.30
2007,05,25,14,01,20.40
2007,05,25,14,02,20.50
2007,05,25,14,03,20.50
2007,05,25,14,04,20.70
2007,05,25,14,05,20.80
2007,05,25,14,06,20.80
2007,05,25,14,07,20.80
2007,05,25,14,08,20.70
2007,05,25,14,09,20.70
2007,05,25,14,10,20.70
2007,05,25,14,11,20.80
2007,05,25,14,12,20.80
2007,05,25,14,13,21.00
2007,05,25,14,14,21.00
2007,05,25,14,15,21.00
2007,05,25,14,16,21.00
2007,05,25,14,17,21.10
2007,05,25,14,18,21.20
2007,05,25,14,19,21.30
2007,05,25,14,20,21.40
2007,05,25,14,21,21.60
2007,05,25,14,22,21.60
2007,05,25,14,23,21.60
2007,05,25,14,24,21.60
2007,05,25,14,25,21.50
2007,05,25,14,26,21.40
2007,05,25,14,27,21.30
2007,05,25,14,28,21.30
2007,05,25,14,29,21.20
2007,05,25,14,30,21.10
2007,05,25,14,31,21.10
2007,05,25,14,32,21.00
2007,05,25,14,33,21.00
2007,05,25,14,34,21.00
2007,05,25,14,35,20.90
2007,05,25,14,36,21.00
2007,05,25,14,37,21.10
2007,05,25,14,38,21.10
2007,05,25,14,39,21.20
2007,05,25,14,40,21.30
2007,05,25,14,41,21.40
2007,05,25,14,42,21.50
2007,05,25,14,43,21.60
2007,05,25,14,44,21.60
2007,05,25,14,45,21.70
2007,05,25,14,46,21.70
2007,05,25,14,47,21.70
2007,05,25,14,48,21.60
2007,05,25,14,49,21.60
2007,05,25,14,50,21.60
2007,05,25,14,51,21.50
2007,05,25,14,52,21.40
2007,05,25,14,53,21.40
2007,05,25,14,54,21.40
2007,05,25,14,55,21.50
2007,05,25,14,56,21.60
2007,05,25,14,57,21.60
2007,05,25,14,58,21.60
2007,05,25,14,59,21.60
2007,05,25,15,00,21.60
2007,05,25,15,01,21.60
2007,05,25,15,02,21.50
2007,05,25,15,03,21.40
2007,05,25,15,04,21.50
2007,05,25,15,05,21.60
2007,05,25,15,06,21.60
2007,05,25,15,07,21.70
2007,05,25,15,08,21.60
2007,05,25,15,09,21.60
2007,05,25,15,10,21.60
2007,05,25,15,11,21.70
2007,05,25,15,12,21.70
2007,05,25,15,13,21.60
2007,05,25,15,14,21.50
2007,05,25,15,15,21.30
2007,05,25,15,16,21.20
2007,05,25,15,17,21.10
2007,05,25,15,18,21.00
2007,05,25,15,19,21.00
2007,05,25,15,20,21.00
2007,05,25,15,21,21.10
2007,05,25,15,22,21.10
2007,05,25,15,23,21.10
2007,05,25,15,24,21.00
2007,05,25,15,25,21.00
2007,05,25,15,26,20.90
2007,05,25,15,27,20.80
2007,05,25,15,28,20.70
2007,05,25,15,29,20.70
2007,05,25,15,30,20.60
2007,05,25,15,31,20.60
2007,05,25,15,32,20.60
2007,05,25,15,33,20.50
2007,05,25,15,34,20.50
2007,05,25,15,35,20.40
2007,05,25,15,36,20.30
2007,05,25,15,37,20.40
2007,05,25,15,38,20.40
2007,05,25,15,39,20.40
2007,05,25,15,40,20.40
2007,05,25,15,41,20.40
2007,05,25,15,42,20.30
2007,05,25,15,43,20.30
2007,05,25,15,44,20.20
2007,05,25,15,45,20.20
2007,05,25,15,46,20.10
2007,05,25,15,47,20.10
2007,05,25,15,48,20.10
2007,05,25,15,49,19.90
2007,05,25,15,50,19.90
2007,05,25,15,51,20.10
2007,05,25,15,52,20.10
2007,05,25,15,53,20.10
2007,05,25,15,54,20.20
2007,05,25,15,55,20.10
2007,05,25,15,56,20.20
2007,05,25,15,57,20.10
2007,05,25,15,58,20.10
2007,05,25,15,59,20.10
2007,05,25,16,00,20.20
2007,05,25,16,01,20.20
2007,05,25,16,02,20.20
2007,05,25,16,03,20.20
2007,05,25,16,04,20.20
2007,05,25,16,05,20.20
2007,05,25,16,06,20.20
2007,05,25,16,07,20.20
2007,05,25,16,08,20.20
2007,05,25,16,09,20.20
2007,05,25,16,10,20.10
2007,05,25,16,11,20.00
2007,05,25,16,12,19.90
2007,05,25,16,13,19.90
2007,05,25,16,14,20.00
2007,05,25,16,15,20.10
2007,05,25,16,16,20.20
2007,05,25,16,17,20.20
2007,05,25,16,18,20.20
2007,05,25,16,19,20.20
2007,05,25,16,20,20.20
2007,05,25,16,21,20.20
2007,05,25,16,22,20.20
2007,05,25,16,23,20.20
2007,05,25,16,24,20.20
2007,05,25,16,25,20.20
2007,05,25,16,26,20.20
2007,05,25,16,27,20.20
2007,05,25,16,28,20.20
2007,05,25,16,29,20.20
2007,05,25,16,30,20.30
2007,05,25,16,31,20.40
2007,05,25,16,32,20.50
2007,05,25,16,33,20.50
2007,05,25,16,34,20.60
2007,05,25,16,35,20.70
2007,05,25,16,36,20.80
2007,05,25,16,37,20.90
2007,05,25,16,38,21.00
2007,05,25,16,39,21.00
2007,05,25,16,40,21.10
2007,05,25,16,41,21.10
2007,05,25,16,42,21.20
2007,05,25,16,43,21.20
2007,05,25,16,44,21.30
2007,05,25,16,45,21.30
2007,05,25,16,46,21.30
2007,05,25,16,47,21.30
2007,05,25,16,48,21.20
2007,05,25,16,49,21.20
2007,05,25,16,50,21.20
2007,05,25,16,51,21.10
2007,05,25,16,52,21.20
2007,05,25,16,53,21.20
2007,05,25,16,54,21.20
2007,05,25,16,55,21.20
2007,05,25,16,56,21.30
2007,05,25,16,57,21.30
2007,05,25,16,58,21.30
2007,05,25,16,59,21.30
2007,05,25,17,00,21.30
2007,05,25,17,01,21.20
2007,05,25,17,02,21.20
2007,05,25,17,03,21.10
2007,05,25,17,04,21.00
2007,05,25,17,05,21.00
2007,05,25,17,06,21.00
2007,05,25,17,07,20.90
2007,05,25,17,08,21.00
2007,05,25,17,09,21.00
2007,05,25,17,10,21.00
2007,05,25,17,11,21.00
2007,05,25,17,12,21.10
2007,05,25,17,13,21.10
2007,05,25,17,14,21.10
2007,05,25,17,15,21.20
2007,05,25,17,16,21.20
2007,05,25,17,17,21.20
2007,05,25,17,18,21.20
2007,05,25,17,19,21.20
2007,05,25,17,20,21.20
2007,05,25,17,21,21.20
2007,05,25,17,22,21.20
2007,05,25,17,23,21.20
2007,05,25,17,24,21.20
2007,05,25,17,25,21.30
2007,05,25,17,26,21.30
2007,05,25,17,27,21.30
2007,05,25,17,28,21.30
2007,05,25,17,29,21.30